FW7513 Weather Reports


time (UTC)temp
C
wind
direction
speed
KPH
gust
KPH
rain 1hr
cm
rain 24hr
cm
rain mn
cm
humidity
%
barometer
mb
20260505111403 13 106 0.0 1.6 0.00 0.56 0.56 95 1008.9
20260505110859 13 110 1.6 1.6 0.00 0.56 0.56 94 1008.7
20260505110357 13 106 1.6 1.6 0.00 0.56 0.56 94 1008.6
20260505101827 13 105 0.0 0.0 0.66 0.53 0.53 91 1009.6
20260505101322 13 106 0.0 0.0 1.07 0.51 0.51 91 1009.8
20260505100818 13 107 0.0 0.0 0.89 0.43 0.43 90 1009.9
20260505100315 13 83 1.6 3.2 0.61 0.33 0.33 90 1009.9
20260505095811 13 104 1.6 1.6 0.43 0.28 0.28 89 1010.1
20260505095309 14 80 1.6 3.2 0.48 0.23 0.23 88 1010.1
20260505094804 14 48 3.2 3.2 0.36 0.20 0.20 87 1009.9
20260505094301 14 87 1.6 1.6 0.13 0.15 0.15 86 1010.1
20260505093757 14 21 3.2 3.2 0.30 0.15 0.15 85 1010.0
20260505093255 14 104 3.2 3.2 0.30 0.13 0.13 84 1009.5
20260505092751 15 94 1.6 1.6 0.13 0.10 0.10 82 1009.5
20260505092250 16 50 4.8 4.8 0.48 0.08 0.08 79 1009.4
20260505091747 16 106 1.6 1.6 0.48 0.08 0.08 72 1009.0
20260505091245 17 236 3.2 3.2 0.00 0.00 0.00 68 1009.2
20260505090742 17 47 4.8 4.8 0.00 0.00 0.00 62 1008.7
20260505090240 17 118 1.6 1.6 0.00 0.00 0.00 62 1008.5
20260505085737 17 104 1.6 1.6 0.00 0.00 0.00 62 1008.5
20260505085236 17 100 1.6 1.6 0.00 0.00 0.00 63 1008.2
20260505084732 17 105 0.0 1.6 0.00 0.00 0.00 64 1008.2
20260505084232 17 110 0.0 0.0 0.00 0.00 0.00 63 1008.1
20260505083728 17 110 0.0 0.0 0.00 0.00 0.00 63 1008.1
20260505083225 17 112 0.0 0.0 0.00 0.00 0.00 63 1008.1
20260505082721 17 93 0.0 0.0 0.00 0.00 0.00 63 1007.9
20260505082218 17 92 0.0 0.0 0.00 0.00 0.00 62 1007.9
20260505081713 17 106 0.0 0.0 0.00 0.00 0.00 62 1008.0
20260505081212 17 106 0.0 0.0 0.00 0.00 0.00 62 1007.8
20260505080708 17 105 0.0 1.6 0.00 0.00 0.00 61 1007.4
20260505080204 17 109 0.0 0.0 0.00 0.00 0.00 61 1007.7
20260505075700 17 102 1.6 1.6 0.00 0.00 0.00 60 1007.6
20260505075157 17 127 3.2 3.2 0.00 0.00 0.00 61 1007.5
20260505074654 18 94 1.6 3.2 0.00 0.00 0.00 60 1007.8
20260505074151 17 295 1.6 3.2 0.00 0.00 0.00 60 1007.8
20260505073649 18 279 1.6 1.6 0.00 0.00 0.00 60 1007.9
20260505073147 18 94 3.2 3.2 0.00 0.00 0.00 60 1007.5
20260505072642 18 75 3.2 3.2 0.00 0.00 0.00 59 1007.4
20260505072139 18 132 1.6 3.2 0.00 0.00 0.00 59 1007.2
20260505071634 18 83 3.2 3.2 0.00 0.00 0.00 59 1007.3
20260505071132 18 156 3.2 3.2 0.00 0.00 0.00 58 1007.0
20260505070629 18 75 3.2 3.2 0.00 0.00 0.00 57 1007.3
20260505070125 18 113 1.6 3.2 0.00 0.00 0.00 59 1007.2
20260505065622 18 144 3.2 3.2 0.00 0.00 0.00 59 1007.2
20260505065118 18 169 1.6 4.8 0.00 0.00 0.00 58 1007.3
20260505064615 18 62 1.6 3.2 0.00 0.00 0.00 58 1007.2
20260505064114 18 80 3.2 3.2 0.00 0.00 0.00 58 1007.0
20260505063611 18 322 6.4 9.7 0.00 0.00 0.00 57 1006.9
20260505063106 18 119 0.0 1.6 0.00 0.00 0.00 58 1007.3
20260505062603 18 150 3.2 3.2 0.00 0.00 0.00 57 1007.3
20260505062101 18 175 4.8 4.8 0.00 0.00 0.00 57 1007.3
20260505061558 18 126 1.6 1.6 0.00 0.00 0.00 57 1007.2
20260505061056 18 116 1.6 1.6 0.00 0.00 0.00 56 1007.0
20260505060553 18 231 3.2 3.2 0.00 0.00 0.00 57 1007.2
20260505060049 18 91 3.2 3.2 0.00 0.00 0.00 57 1007.0
20260505055544 18 227 6.4 9.7 0.00 0.00 0.00 57 1006.7
20260505055042 18 235 4.8 8.0 0.00 0.00 0.00 57 1006.7
20260505054539 18 106 0.0 1.6 0.00 0.00 0.00 57 1006.7
20260505054037 18 118 3.2 3.2 0.00 0.00 0.00 58 1006.5
20260505053534 18 100 1.6 3.2 0.00 0.00 0.00 57 1006.6
20260505053031 18 250 6.4 8.0 0.00 0.00 0.00 57 1006.5
20260505052528 18 264 11.3 14.5 0.00 0.00 0.00 56 1006.5
20260505052025 19 113 1.6 1.6 0.00 0.00 0.00 57 1006.3
20260505051522 19 89 1.6 3.2 0.00 0.00 0.00 56 1006.7
20260505051020 19 286 6.4 9.7 0.00 0.00 0.00 55 1006.7
20260505050518 19 240 6.4 8.0 0.00 0.00 0.00 55 1006.7
20260505041445 20 132 3.2 3.2 0.00 0.00 0.00 57 1007.3
20260505040943 20 146 1.6 3.2 0.00 0.00 0.00 56 1007.0
20260505040440 20 324 4.8 4.8 0.00 0.00 0.00 55 1007.2
20260505035937 20 130 1.6 3.2 0.00 0.00 0.00 56 1007.3
20260505035433 20 125 1.6 3.2 0.00 0.00 0.00 57 1007.6
20260505034930 20 106 1.6 1.6 0.00 0.00 0.00 57 1007.4
20260505034426 20 175 3.2 3.2 0.00 0.00 0.00 57 1007.5
20260505033924 19 142 3.2 3.2 0.00 0.00 0.00 57 1007.4
20260505033420 20 109 0.0 0.0 0.00 0.00 0.00 58 1007.5
20260505032919 19 139 3.2 3.2 0.00 0.00 0.00 58 1007.2
20260505032415 19 99 0.0 0.0 0.00 0.00 0.00 58 1007.3
20260505031912 19 106 0.0 0.0 0.00 0.00 0.00 59 1007.5
20260505031409 20 106 1.6 1.6 0.00 0.00 0.00 58 1007.3
20260505030906 20 134 3.2 4.8 0.00 0.00 0.00 57 1007.2
20260505030401 19 115 0.0 1.6 0.00 0.00 0.00 58 1007.0
20260505025857 19 109 0.0 0.0 0.00 0.00 0.00 59 1007.4
20260505025355 19 96 1.6 1.6 0.00 0.00 0.00 59 1007.3
20260505024854 20 82 4.8 8.0 0.00 0.00 0.00 58 1006.9
20260505024351 20 122 1.6 1.6 0.00 0.00 0.00 58 1006.9
20260505023848 20 102 0.0 1.6 0.00 0.00 0.00 58 1006.6
20260505023345 20 256 6.4 9.7 0.00 0.00 0.00 57 1006.7
20260505022842 20 102 1.6 1.6 0.00 0.00 0.00 58 1006.8
20260505022339 20 102 1.6 1.6 0.00 0.00 0.00 59 1006.6
20260505021836 20 94 1.6 1.6 0.00 0.00 0.00 59 1006.7
20260505021332 19 116 1.6 1.6 0.00 0.00 0.00 59 1006.8
20260505020828 19 111 0.0 0.0 0.00 0.00 0.00 59 1006.6
20260505020324 19 101 0.0 0.0 0.00 0.00 0.00 60 1006.6
20260505015821 20 102 0.0 0.0 0.00 0.00 0.00 59 1006.3
20260505015318 20 109 0.0 0.0 0.00 0.00 0.00 59 1006.2
20260505014815 20 121 1.6 3.2 0.00 0.00 0.00 59 1006.2
20260505014312 19 111 0.0 0.0 0.00 0.00 0.00 59 1006.0
20260505013809 20 117 0.0 0.0 0.00 0.00 0.00 59 1006.1
20260505013306 20 109 1.6 1.6 0.00 0.00 0.00 59 1006.0
20260505012805 19 109 0.0 1.6 0.00 0.00 0.00 59 1006.2
20260505012304 20 109 0.0 0.0 0.00 0.00 0.00 59 1006.0
20260505011757 20 109 0.0 0.0 0.00 0.00 0.00 58 1006.1
20260505011255 20 109 0.0 0.0 0.00 0.00 0.00 58 1006.0
20260505010750 20 110 0.0 0.0 0.00 0.00 0.00 57 1006.3
20260505010247 20 111 0.0 0.0 0.00 0.00 0.00 57 1006.1
20260505005743 20 112 0.0 0.0 0.00 0.00 0.00 57 1006.1
20260505005240 20 111 0.0 0.0 0.00 0.00 0.00 57 1006.1
20260505004737 20 113 0.0 0.0 0.00 0.00 0.00 56 1006.1
20260505004233 20 106 0.0 0.0 0.00 0.00 0.00 56 1006.1
20260505003731 20 113 0.0 0.0 0.00 0.00 0.00 55 1006.1
20260505003229 21 113 0.0 1.6 0.00 0.00 0.00 55 1005.9
20260505002725 21 102 0.0 0.0 0.00 0.00 0.00 54 1005.8
20260505002222 21 111 0.0 1.6 0.00 0.00 0.00 54 1005.9
20260505001720 21 101 0.0 1.6 0.00 0.00 0.00 54 1006.0
20260505001217 21 119 1.6 3.2 0.00 0.00 0.00 53 1006.1
20260505000714 21 94 0.0 0.0 0.00 0.00 0.00 52 1006.1
20260505000212 21 110 1.6 1.6 0.00 0.00 0.00 52 1006.0
20260504235708 22 119 0.0 1.6 0.00 0.00 0.00 52 1006.4
20260504235204 22 115 3.2 3.2 0.00 0.00 0.00 52 1006.3
20260504234702 22 114 0.0 0.0 0.00 0.00 0.00 52 1006.3
20260504234159 22 112 1.6 1.6 0.00 0.00 0.00 52 1006.5
20260504233654 22 131 3.2 3.2 0.00 0.00 0.00 51 1006.5
20260504233150 22 244 6.4 8.0 0.00 0.00 0.00 49 1006.7
20260504232648 22 327 6.4 8.0 0.00 0.00 0.00 49 1006.7
20260504232145 22 110 1.6 1.6 0.00 0.00 0.00 50 1006.7
20260504231642 22 78 1.6 1.6 0.00 0.00 0.00 48 1006.5
20260504231138 23 294 4.8 8.0 0.00 0.00 0.00 45 1007.0
20260504230634 23 242 4.8 4.8 0.00 0.00 0.00 45 1006.7
20260504230133 23 264 3.2 8.0 0.00 0.00 0.00 45 1006.7
20260504225631 23 2 8.0 9.7 0.00 0.00 0.00 45 1006.7
20260504225127 23 290 16.1 27.4 0.00 0.00 0.00 42 1007.2
20260504224624 23 234 6.4 8.0 0.00 0.00 0.00 44 1006.9
20260504224121 23 287 6.4 8.0 0.00 0.00 0.00 44 1006.9
20260504223618 23 1 6.4 8.0 0.00 0.00 0.00 44 1006.9
20260504223114 23 141 3.2 4.8 0.00 0.00 0.00 46 1006.8
20260504222611 23 297 3.2 4.8 0.00 0.00 0.00 47 1006.9
20260504222108 23 271 9.7 11.3 0.00 0.00 0.00 47 1006.9
20260504221605 23 130 0.0 1.6 0.00 0.00 0.00 53 1007.0
20260504221102 23 114 1.6 1.6 0.00 0.00 0.00 53 1007.0
20260504220558 24 122 0.0 1.6 0.00 0.00 0.00 49 1006.8
20260504220055 24 107 0.0 1.6 0.00 0.00 0.00 49 1006.8
20260504215552 23 88 0.0 0.0 0.00 0.00 0.00 52 1007.0
20260504215049 23 88 0.0 0.0 0.00 0.00 0.00 52 1007.3
20260504214545 23 88 0.0 0.0 0.00 0.00 0.00 52 1007.4
20260504214042 23 88 0.0 0.0 0.00 0.00 0.00 49 1007.6
20260504213538 23 101 0.0 0.0 0.00 0.00 0.00 52 1007.6
20260504213035 24 114 1.6 1.6 0.00 0.00 0.00 50 1007.8
20260504212531 24 98 0.0 0.0 0.00 0.00 0.00 48 1007.8
20260504212029 25 66 3.2 3.2 0.00 0.00 0.00 45 1007.6
20260504211525 25 71 3.2 3.2 0.00 0.00 0.00 49 1007.9
20260504211022 24 50 1.6 3.2 0.00 0.00 0.00 44 1008.1
20260504210519 25 159 3.2 3.2 0.00 0.00 0.00 49 1007.8
20260504210016 24 275 4.8 4.8 0.00 0.00 0.00 47 1008.1
20260504205514 24 294 6.4 8.0 0.00 0.00 0.00 46 1008.1
20260504205012 24 138 3.2 3.2 0.00 0.00 0.00 48 1007.9
20260504204510 23 9 3.2 4.8 0.00 0.00 0.00 47 1008.2
20260504204008 23 109 0.0 1.6 0.00 0.00 0.00 52 1008.2
20260504203506 25 65 1.6 3.2 0.00 0.00 0.00 49 1008.1
20260504203003 25 111 1.6 1.6 0.00 0.00 0.00 48 1008.3
20260504202458 25 118 1.6 1.6 0.00 0.00 0.00 56 1008.3
20260504201955 23 280 4.8 4.8 0.00 0.00 0.00 53 1008.7
20260504201453 23 350 1.6 1.6 0.00 0.00 0.00 55 1008.5
20260504200950 22 31 3.2 4.8 0.00 0.00 0.00 51 1008.7
20260504200447 23 23 4.8 4.8 0.00 0.00 0.00 52 1008.7
20260504195943 23 253 4.8 4.8 0.00 0.00 0.00 53 1008.6
20260504195439 23 139 4.8 4.8 0.00 0.00 0.00 51 1008.7
20260504194936 23 154 3.2 3.2 0.00 0.00 0.00 52 1008.8
20260504194432 23 273 4.8 8.0 0.00 0.00 0.00 52 1008.8
20260504193928 23 100 1.6 1.6 0.00 0.00 0.00 57 1008.9
20260504193425 23 217 6.4 8.0 0.00 0.00 0.00 52 1009.0
20260504192924 23 47 3.2 3.2 0.00 0.00 0.00 52 1008.9
20260504192421 23 127 1.6 3.2 0.00 0.00 0.00 52 1009.3
20260504191920 23 300 4.8 4.8 0.00 0.00 0.00 54 1009.3
20260504191418 22 322 4.8 8.0 0.00 0.00 0.00 56 1009.2
20260504190913 22 127 1.6 3.2 0.00 0.00 0.00 57 1009.2
20260504190408 22 307 4.8 8.0 0.00 0.00 0.00 57 1009.1
20260504185905 22 270 4.8 8.0 0.00 0.00 0.00 55 1009.4
20260504185403 22 105 0.0 1.6 0.00 0.00 0.00 59 1009.5
20260504184858 21 144 3.2 3.2 0.00 0.00 0.00 59 1009.6
20260504184354 20 110 3.2 3.2 0.00 0.00 0.00 61 1009.5
20260504183850 20 296 6.4 8.0 0.00 0.00 0.00 60 1009.7
20260504183348 20 74 3.2 3.2 0.00 0.00 0.00 60 1009.6
20260504182845 20 305 4.8 8.0 0.00 0.00 0.00 58 1009.5
20260504182343 20 3 9.7 11.3 0.00 0.00 0.00 60 1009.4
20260504181839 21 100 1.6 1.6 0.00 0.00 0.00 61 1009.7
20260504181337 21 300 9.7 16.1 0.00 0.00 0.00 57 1009.5
20260504180836 20 217 1.6 4.8 0.00 0.00 0.00 60 1009.6
20260504180334 20 293 3.2 4.8 0.00 0.00 0.00 59 1009.2
20260504175832 20 55 3.2 4.8 0.00 0.00 0.00 58 1009.2
20260504175328 20 289 4.8 4.8 0.00 0.00 0.00 60 1009.4
20260504174826 21 113 3.2 4.8 0.00 0.00 0.00 58 1009.0
20260504174324 21 107 6.4 9.7 0.00 0.00 0.00 56 1009.1
20260504173820 21 136 1.6 3.2 0.00 0.00 0.00 58 1009.1
20260504173317 22 81 1.6 1.6 0.00 0.00 0.00 57 1009.1
20260504172814 22 104 1.6 1.6 0.00 0.00 0.00 57 1008.8
20260504172311 22 180 3.2 3.2 0.00 0.00 0.00 56 1008.9
20260504171807 22 133 1.6 3.2 0.00 0.00 0.00 57 1009.1
20260504171304 21 8 4.8 4.8 0.00 0.00 0.00 57 1009.0
20260504170801 20 171 3.2 3.2 0.00 0.00 0.00 59 1009.1
20260504170258 20 261 6.4 8.0 0.00 0.00 0.00 58 1008.9
20260504160216 19 272 0.0 0.0 0.00 0.00 0.00 61 1009.6
20260504151144 18 112 1.6 1.6 0.00 0.00 0.00 61 1009.8
20260504150641 18 133 1.6 1.6 0.00 0.00 0.00 63 1009.9
20260504150138 18 119 0.0 0.0 0.00 0.00 0.00 62 1009.8
20260504141107 16 45 4.8 8.0 0.00 0.00 0.00 64 1009.3
20260504140604 16 291 6.4 8.0 0.00 0.00 0.00 61 1009.6
20260504130528 13 116 0.0 1.6 0.00 0.00 0.00 68 1010.4